User: anonymous   Login
Location: Palomar Mountain Lodge
(33.3110°N, 116.8495°W)
Time: 23:18:50
(UTC-08:00)
Language:

USA 267 - Orbit

View from above orbital plane
View from above orbital plane
View from above satellite
View from above satellite

Ground track
Ground track

The orbit data is extracted from the following two-line orbital elements,

1 41334U 16010A   17321.19550710 0.00000000  00000-0  00000-0 0    08
2 41334 123.0024 200.2661 0006574 138.7718 221.2281 13.41403725    01
Epoch (UTC): 17 November 2017 04:41:31
Eccentricity: 0.0006574
inclination: 123.0024°
perigee height: 1099 km
apogee height: 1109 km
right ascension of ascending node: 200.2661°
argument of perigee: 138.7718°
revolutions per day: 13.41403725
mean anomaly at epoch: 221.2281°
orbit number at epoch: 0

The dashed part of the orbit path shows where the satellite is in the earth's shadow,  

DLR